Location: Newark
(49.8969°N, 3.3422°E)
Time: 22:45:18
(UTC+00:00)

Envisat - Pass Details

Date: 09 December 2019
Orbit: 764 x 766 km, 98.1° (Epoch: 21 January)

Event Time Altitude Azimuth Distance (km) Brightness Sun altitude
Rises 18:13:47 0° 185° (S) 3,221 6.4 -22.8°
Reaches altitude 10° 18:16:12 10° 193° (SSW) 2,300 5.7 -23.1°
Maximum altitude 18:20:58 40° 263° (W) 1,116 4.3 -23.9°
Drops below altitude 10° 18:25:47 10° 333° (NNW) 2,316 5.7 -24.7°
Sets 18:28:14 0° 341° (NNW) 3,247 6.4 -25.1°
